Regional Weather Roundup
Issued by NWS

Home | Current Version | Previous Version | Graphics & Text | Print | Product List | Glossary On
Versions: 1 2 3 4 5 6 7 8 9 10 11 12 13 14 15 16 17 18 19 20 21 22 23 24 25 26 27 28 29 30 31 32 33 34 35 36 37 38 39 40 41 42 43 44 45 46 47 48 49 50
000
ASUS43 KOAX 250902
RWRNE

WEATHER ROUNDUP FOR NEBRASKA
NATIONAL WEATHER SERVICE OMAHA NE
400 AM CDT SAT MAR 25 2017

NOTES: SATELLITE DATA IS BEING USED TO AUGMENT CLOUD COVER ABOVE
       12000 FEET.
       "FAIR" INDICATES FEW OR NO CLOUDS BELOW 12,000 FEET WITH NO
       SIGNIFICANT WEATHER AND/OR OBSTRUCTIONS TO VISIBILITY.

  * THESE STATIONS DO NOT REPORT WEATHER SUCH AS RAIN...SNOW OR FOG.

NEZ001>004-019>022-054>056-251000-
NEBRASKA PANHANDLE

CITY           SKY/WX    TMP DP  RH WIND       PRES   REMARKS
SCOTTSBLUFF    CLOUDY    32  26  78 E8        30.05F WCI  25
ALLIANCE       CLOUDY    23  20  88 CALM      30.05F
CHADRON        CLOUDY    39  29  67 S3        30.02F
KIMBALL        CLOUDY    29  29  99 W6        30.07F WCI  23
SIDNEY         CLOUDY    24  22  91 NW8       30.07F WCI  15
$$

NEZ057>060-069>072-079>082-251000-
SOUTHWEST NEBRASKA

CITY           SKY/WX    TMP DP  RH WIND       PRES   REMARKS
NORTH PLATTE   CLEAR     32  27  81 SW3       30.06S
IMPERIAL       CLEAR     33  28  81 VRB3      30.06S
LEXINGTON      CLOUDY    37  34  89 N8        30.04F WCI  31
MCCOOK         CLEAR     36  34  92 N9        30.04F WCI  29
OGALLALA       CLOUDY    32  29  88 E3        30.06F
$$

NEZ005>010-023>029-035>040-094-251000-
NORTH CENTRAL NEBRASKA

CITY           SKY/WX    TMP DP  RH WIND       PRES   REMARKS
VALENTINE      CLOUDY    25  21  85 SW5       30.07F WCI  19
AINSWORTH      CLOUDY    28  27  99 N5        30.08S WCI  22
BROKEN BOW     CLOUDY    35  33  92 N14       30.04F WCI  26
O`NEILL        CLOUDY    36  35  98 N12       30.07F FOG     WCI  27
ORD            CLOUDY    37  34  89 N15       30.04S FOG     WCI  28
THEDFORD       CLOUDY    29  26  88 NW5       30.07S WCI  24
$$

NEZ041-046>049-061>064-073>077-083>087-251000-
SOUTH CENTRAL NEBRASKA

CITY           SKY/WX    TMP DP  RH WIND       PRES   REMARKS
GRAND ISLAND   CLOUDY    37  37 100 N15       30.01R FOG     WCI  28
AURORA         CLOUDY    38  37  97 N20       30.00R FOG     WCI  27
HASTINGS       CLOUDY    39  37  92 N18       30.00R FOG     WCI  30
HEBRON         RAIN      40  39  95 N15G21    29.95F WCI  32
HOLDREGE       CLOUDY    40  37  91 N9        30.00F WCI  34
KEARNEY *      CLOUDY    39  36  87 N16       30.01F WCI  30
YORK           MIX PCPN  39  39 100 N18G26    29.98R WCI  30
$$

NEZ011>018-030>034-042>045-251000-
NORTHEAST NEBRASKA

CITY           SKY/WX    TMP DP  RH WIND       PRES   REMARKS
NORFOLK        CLOUDY    36  35  96 N17G25    30.02S FOG     WCI  26
ALBION         CLOUDY    37  35  92 N17       30.03R FOG     WCI  28
BLAIR          DRIZZLE   41  39  95 N16G25    29.92S
FREMONT        LGT RAIN  40  40 100 N9G16     29.96F WCI  34
TEKAMAH        CLOUDY    41  38  89 N15       29.98S
WAYNE          CLOUDY    37  37  98 N17       30.04R FOG     WCI  28
$$

NEZ050>053-065>068-078-088>093-251000-
SOUTHEAST NEBRASKA

CITY           SKY/WX    TMP DP  RH WIND       PRES   REMARKS
LINCOLN        CLOUDY    42  40  92 N18       29.95R
OMAHA EPPLEY   LGT RAIN  42  37  82 N17       29.93R
BEATRICE       CLOUDY    41  40  96 N14G20    29.91S
FALLS CITY     LGT RAIN  44  43  96 N10       29.83S FOG
NEBRASKA CITY  LGT RAIN  40  40 100 N21       29.88R WCI  31
PLATTSMOUTH    CLOUDY    41  38  90 N10G17    29.89S FOG
$$

NEZ044-045-051>053-067-251000-
OMAHA AREA

CITY           SKY/WX    TMP DP  RH WIND       PRES   REMARKS
OMAHA EPPLEY   LGT RAIN  42  37  82 N17       29.93R
BLAIR          DRIZZLE   41  39  95 N16G25    29.92S
FREMONT        LGT RAIN  40  40 100 N9G16     29.96F WCI  34
MILLARD        DRIZZLE   43  41  94 N9G20     29.93R
OFFUTT AFB     MIX PCPN  41  39  92 N12       29.91R
PLATTSMOUTH    CLOUDY    41  38  90 N10G17    29.89S FOG
WAHOO          LGT RAIN  41  39  95 N21G29    29.94S
$$




USA.gov is the U.S. government's official web portal to all federal, state and local government web resources and services.